This is the latest recevied weather packets stored in our database for station/object KE5OYL. If no packets are shown the sender has not sent any weather packets the latest 1 day(s).
| Time | Temp. | Humidity | Pressure | Rain* | Wind** | Luminosity | Snow |
|---|---|---|---|---|---|---|---|
| 1778118735 | 15.56° C | 80% | 1016.3 hPa | 0 mm | - | 0 W/m² | - |
| 1778118432 | 15.56° C | 80% | 1016.1 hPa | 0 mm | - | 0 W/m² | - |
| 1778117825 | 15.56° C | 80% | 1015.9 hPa | 0 mm | - | 0 W/m² | - |
| 1778117523 | 15.56° C | 80% | 1015.9 hPa | 0 mm | - | 0 W/m² | - |
| 1778117220 | 15.56° C | 80% | 1015.6 hPa | 0 mm | - | 0 W/m² | - |
| 1778116915 | 15.56° C | 80% | 1015.7 hPa | 0 mm | - | 0 W/m² | - |
| 1778116613 | 15.56° C | 80% | 1015.7 hPa | 0 mm | - | 1 W/m² | - |
| 1778116309 | 15.56° C | 80% | 1015.5 hPa | 0 mm | - | 2 W/m² | - |
| 1778116004 | 15.56° C | 80% | 1015.3 hPa | 0 mm | - | 3 W/m² | - |
| 1778115700 | 15.56° C | 80% | 1015.2 hPa | 0 mm | - | 4 W/m² | - |
| 1778115398 | 15.56° C | 80% | 1015.1 hPa | 0 mm | - | 6 W/m² | - |
| 1778114791 | 15.56° C | 80% | 1015.2 hPa | 0 mm | - | 9 W/m² | - |
| 1778113879 | 15.56° C | 79% | 1015.4 hPa | 0 mm | - | 19 W/m² | - |
| 1778113576 | 15.56° C | 79% | 1015.2 hPa | 0 mm | - | 26 W/m² | - |
| 1778113272 | 15.56° C | 78% | 1015.1 hPa | 0 mm | - | 29 W/m² | - |
| 1778112969 | 15.56° C | 78% | 1015 hPa | 0 mm | - | 31 W/m² | - |
| 1778110543 | 16.67° C | 75% | 1014.6 hPa | 0 mm | - | 60 W/m² | - |
| 1778109631 | 16.11° C | 75% | 1014.4 hPa | 0 mm | - | 102 W/m² | - |
| 1778108117 | 16.67° C | 74% | 1014.5 hPa | 0 mm | - | 149 W/m² | - |
| 1778107813 | 16.67° C | 74% | 1014.2 hPa | 0 mm | - | 137 W/m² | - |
| 1778107510 | 16.67° C | 74% | 1014.3 hPa | 0 mm | - | 101 W/m² | - |
| 1778107207 | 16.67° C | 74% | 1014.1 hPa | 0 mm | - | 115 W/m² | - |
| 1778106296 | 16.67° C | 74% | 1013.9 hPa | 0 mm | - | 133 W/m² | - |
| 1778105083 | 16.67° C | 75% | 1014 hPa | 0 mm | - | 127 W/m² | - |
| 1778104476 | 16.11° C | 76% | 1014.1 hPa | 0 mm | - | 128 W/m² | - |
* Rain latest hour (hover to see other rain measurements)
** Current wind speed in m/s (hover to see current wind gust speed)